QPF
0.00 0.00 0.00 0.00 0.00 0.00 0.00 0.00 0.00 0.00 0.00 0.00 0.00 0.00 0.00 0.00 0.00 0.00 0.00 0.00 0.00 0.00 0.00 0.00 0.00 0.00 0.00 0.00 0.00 0.00 0.00 0.00 0.00 0.00 0.00 0.00 0.00 0.00 0.00 0.00 0.00 0.00 0.00
0.00 0.00 0.00 0.00 0.00 0.00 0.00 0.00 0.00 0.00 0.00 0.00 0.00 0.00 0.00 0.00 0.00 0.00 0.00 0.00 0.00 0.00 0.00 0.00 0.00 0.00 0.00 0.00 0.00 0.00 0.00 0.00 0.00 0.00 0.00 0.00 0.01 0.00 0.00 0.00 0.00 0.00 0.00
0.00 0.00 0.00 0.00 0.00 0.00 0.00 0.00 0.00 0.00 0.00 0.00 0.00 0.00 0.00 0.00 0.00 0.00 0.00 0.00 0.00 0.00 0.00 0.00 0.00 0.00 0.00 0.00 0.00 0.00 0.00 0.00 0.00 0.00 0.00 0.00 0.00 0.02 0.00 0.00 0.00 0.00 0.00
0.00 0.00 0.00 0.00 0.00 0.00 0.00 0.00 0.00 0.00 0.00 0.00 0.00 0.00 0.00 0.00 0.00 0.00 0.00 0.00 0.00 0.00 0.00 0.00 0.00 0.00 0.00 0.00 0.00 0.00 0.00 0.00 0.00 0.00 0.00 0.00 0.01 0.06 0.02 0.01 0.00 0.00 0.01
0.00 0.00 0.00 0.00 0.00 0.00 0.00 0.00 0.00 0.00 0.00 0.00 0.00 0.00 0.00 0.00 0.00 0.00 0.00 0.00 0.00 0.00 0.00 0.00 0.00 0.00 0.00 0.00 0.00 0.00 0.00 0.00 0.00 0.00 0.00 0.00 0.01 0.13 0.18 0.10 0.04 0.00 0.02
0.00 0.00 0.00 0.00 0.00 0.00 0.00 0.00 0.00 0.00 0.00 0.00 0.00 0.00 0.00 0.00 0.00 0.00 0.00 0.00 0.00 0.00 0.00 0.00 0.00 0.00 0.00 0.00 0.00 0.00 0.00 0.00 0.00 0.00 0.00 0.00 0.00 0.05 0.10 0.09 0.06 0.02 0.03
0.00 0.00 0.00 0.00 0.00 0.00 0.00 0.00 0.00 0.00 0.00 0.00 0.00 0.00 0.00 0.00 0.00 0.00 0.00 0.00 0.00 0.00 0.00 0.00 0.00 0.00 0.00 0.00 0.00 0.00 0.00 0.00 0.00 0.00 0.00 0.00 0.00 0.05 0.11 0.08 0.02 0.01 0.02
0.00 0.00 0.00 0.00 0.00 0.00 0.00 0.00 0.00 0.00 0.00 0.00 0.00 0.00 0.00 0.00 0.00 0.00 0.00 0.00 0.00 0.00 0.00 0.00 0.00 0.00 0.00 0.00 0.00 0.00 0.00 0.00 0.00 0.00 0.00 0.00 0.00 0.00 0.01 0.09 0.07 0.02 0.00
0.00 0.00 0.00 0.00 0.00 0.00 0.00 0.00 0.00 0.00 0.00 0.00 0.00 0.00 0.00 0.00 0.00 0.00 0.00 0.00 0.00 0.00 0.00 0.00 0.00 0.00 0.00 0.00 0.00 0.00 0.00 0.00 0.00 0.00 0.00 0.00 0.00 0.00 0.00 0.04 0.07 0.02 0.00
0.00 0.00 0.00 0.00 0.00 0.00 0.00 0.00 0.00 0.00 0.00 0.00 0.00 0.00 0.00 0.00 0.00 0.00 0.00 0.00 0.00 0.00 0.00 0.00 0.00 0.00 0.00 0.00 0.00 0.00 0.00 0.00 0.00 0.00 0.00 0.00 0.00 0.00 0.00 0.01 0.02 0.00 0.01
0.00 0.00 0.00 0.00 0.00 0.00 0.00 0.00 0.00 0.00 0.00 0.00 0.00 0.00 0.00 0.00 0.00 0.00 0.00 0.00 0.00 0.00 0.00 0.00 0.00 0.00 0.00 0.00 0.00 0.00 0.00 0.00 0.01 0.00 0.00 0.00 0.00 0.00 0.00 0.00 0.00 0.00 0.01
0.00 0.00 0.00 0.00 0.00 0.00 0.00 0.00 0.00 0.00 0.00 0.00 0.00 0.00 0.00 0.00 0.00 0.00 0.00 0.00 0.00 0.00 0.00 0.00 0.00 0.00 0.00 0.00 0.00 0.00 0.00 0.00 0.00 0.00 0.00 0.00 0.00 0.00 0.01 0.02 0.01 0.00 0.00
0.00 0.00 0.00 0.00 0.00 0.00 0.00 0.00 0.00 0.00 0.00 0.00 0.00 0.00 0.00 0.00 0.00 0.00 0.00 0.00 0.00 0.00 0.00 0.00 0.00 0.00 0.00 0.00 0.00 0.00 0.00 0.00 0.00 0.00 0.00 0.00 0.00 0.00 0.01 0.01 0.01 0.00 0.00
0.00 0.00 0.00 0.00 0.01 0.01 0.00 0.00 0.00 0.00 0.00 0.00 0.00 0.00 0.00 0.00 0.00 0.00 0.00 0.00 0.00 0.00 0.00 0.00 0.00 0.00 0.00 0.00 0.00 0.00 0.00 0.00 0.00 0.00 0.00 0.00 0.00 0.00 0.02 0.06 0.05 0.03 0.03
0.00 0.00 0.01 0.00 0.01 0.02 0.02 0.01 0.01 0.01 0.00 0.00 0.00 0.00 0.00 0.00 0.00 0.00 0.00 0.00 0.00 0.00 0.00 0.00 0.00 0.00 0.00 0.00 0.00 0.00 0.00 0.00 0.00 0.00 0.00 0.00 0.00 0.00 0.02 0.03 0.05 0.07 0.04
0.00 0.00 0.00 0.00 0.00 0.00 0.00 0.00 0.01 0.03 0.03 0.03 0.03 0.02 0.01 0.00 0.00 0.00 0.00 0.00 0.00 0.00 0.00 0.00 0.00 0.00 0.00 0.00 0.00 0.00 0.00 0.00 0.00 0.00 0.00 0.00 0.00 0.00 0.01 0.03 0.04 0.04 0.02
0.00 0.00 0.00 0.00 0.00 0.00 0.00 0.00 0.00 0.03 0.06 0.07 0.08 0.10 0.10 0.04 0.01 0.00 0.00 0.00 0.02 0.03 0.03 0.01 0.00 0.00 0.00 0.00 0.00 0.00 0.00 0.00 0.00 0.00 0.00 0.00 0.00 0.00 0.00 0.00 0.01 0.03 0.03
0.00 0.00 0.00 0.00 0.00 0.00 0.00 0.00 0.00 0.00 0.02 0.06 0.11 0.15 0.19 0.14 0.08 0.14 0.14 0.12 0.10 0.23 0.20 0.09 0.04 0.01 0.00 0.00 0.00 0.00 0.00 0.00 0.00 0.00 0.00 0.00 0.00 0.00 0.00 0.00 0.00 0.02 0.04
0.00 0.00 0.00 0.00 0.00 0.00 0.00 0.00 0.00 0.00 0.00 0.00 0.01 0.05 0.10 0.17 0.22 0.18 0.16 0.26 0.29 0.30 0.31 0.21 0.14 0.07 0.02 0.01 0.00 0.00 0.00 0.00 0.00 0.00 0.00 0.00 0.00 0.00 0.00 0.00 0.00 0.00 0.02
0.00 0.00 0.00 0.00 0.00 0.00 0.00 0.00 0.00 0.00 0.00 0.00 0.00 0.00 0.00 0.01 0.02 0.03 0.08 0.23 0.30 0.33 0.37 0.40 0.26 0.18 0.15 0.13 0.08 0.03 0.05 0.04 0.02 0.01 0.00 0.00 0.00 0.00 0.00 0.00 0.00 0.00 0.01
0.00 0.00 0.00 0.00 0.00 0.00 0.00 0.00 0.00 0.00 0.00 0.00 0.00 0.00 0.00 0.00 0.00 0.00 0.00 0.04 0.10 0.09 0.12 0.17 0.29 0.32 0.37 0.37 0.24 0.22 0.20 0.15 0.15 0.11 0.06 0.04 0.01 0.00 0.00 0.00 0.00 0.00 0.00
0.00 0.00 0.00 0.00 0.00 0.00 0.00 0.00 0.00 0.00 0.00 0.00 0.00 0.00 0.00 0.00 0.00 0.00 0.00 0.00 0.00 0.01 0.01 0.02 0.08 0.09 0.13 0.26 0.46 0.42 0.29 0.18 0.20 0.24 0.22 0.14 0.05 0.02 0.00 0.00 0.00 0.00 0.00
0.00 0.00 0.00 0.00 0.00 0.00 0.00 0.00 0.00 0.00 0.00 0.00 0.00 0.00 0.00 0.00 0.00 0.00 0.00 0.00 0.00 0.00 0.00 0.01 0.02 0.07 0.04 0.07 0.14 0.27 0.46 0.56 0.59 0.53 0.50 0.33 0.10 0.03 0.01 0.00 0.00 0.00 0.00
0.00 0.00 0.00 0.00 0.00 0.00 0.00 0.00 0.00 0.00 0.00 0.00 0.00 0.00 0.00 0.00 0.00 0.00 0.00 0.00 0.00 0.00 0.00 0.00 0.01 0.03 0.06 0.01 0.02 0.06 0.27 0.65 0.58 0.44 0.43 0.42 0.14 0.03 0.00 0.00 0.00 0.00 0.00
0.01 0.00 0.00 0.00 0.00 0.00 0.00 0.00 0.00 0.00 0.00 0.00 0.00 0.00 0.00 0.00 0.00 0.00 0.00 0.00 0.00 0.00 0.00 0.00 0.01 0.01 0.02 0.02 0.01 0.02 0.03 0.08 0.13 0.14 0.09 0.04 0.02 0.00 0.00 0.00 0.00 0.00 0.00
0.01 0.00 0.00 0.00 0.00 0.00 0.00 0.00 0.00 0.00 0.00 0.00 0.00 0.00 0.00 0.00 0.00 0.00 0.00 0.00 0.00 0.00 0.00 0.00 0.00 0.01 0.01 0.02 0.02 0.02 0.03 0.02 0.00 0.00 0.00 0.00 0.00 0.00 0.00 0.00 0.00 0.00 0.00
MSLP
1006.70 1006.71 1007.20 1007.37 1007.64 1007.76 1007.87 1007.73 1007.66 1007.83 1008.08 1008.36 1008.63 1008.88 1009.19 1009.56 1009.93 1010.31 1010.80 1011.26 1011.66 1011.91 1012.22 1012.50 1012.74 1012.98 1013.11 1013.44 1013.64 1013.69 1013.84 1013.91 1013.90 1013.89 1013.94 1014.14 1014.30 1014.46 1014.72 1014.82 1014.94 1015.14 1015.32
1006.30 1006.78 1007.18 1007.46 1007.76 1007.87 1008.00 1008.13 1008.16 1008.26 1008.63 1008.83 1009.04 1009.18 1009.37 1009.63 1009.99 1010.45 1010.98 1011.41 1011.77 1012.04 1012.30 1012.56 1012.81 1013.06 1013.30 1013.63 1013.78 1013.84 1013.98 1014.06 1014.14 1014.15 1014.18 1014.24 1014.38 1014.69 1015.06 1015.17 1015.32 1015.45 1015.54
1006.50 1006.75 1007.24 1007.48 1007.59 1008.00 1008.20 1008.38 1008.50 1008.47 1008.60 1008.98 1009.20 1009.56 1009.73 1009.88 1010.22 1010.56 1011.01 1011.38 1011.69 1012.06 1012.34 1012.58 1012.85 1013.06 1013.48 1013.78 1013.87 1013.98 1014.11 1014.24 1014.39 1014.44 1014.35 1014.50 1014.75 1014.89 1015.17 1015.35 1015.61 1015.70 1015.92
1006.57 1006.83 1007.07 1007.35 1007.42 1007.70 1008.22 1008.48 1008.62 1008.74 1008.78 1009.03 1009.34 1009.66 1009.84 1010.07 1010.37 1010.73 1011.06 1011.45 1011.79 1012.12 1012.39 1012.60 1012.88 1013.21 1013.59 1013.86 1013.97 1014.03 1014.19 1014.33 1014.42 1014.48 1014.66 1014.86 1014.90 1015.04 1015.31 1015.56 1015.53 1016.00 1016.01
1006.68 1006.94 1007.12 1007.20 1007.33 1007.56 1007.91 1008.30 1008.55 1008.84 1009.09 1009.18 1009.33 1009.52 1009.80 1010.00 1010.31 1010.70 1011.09 1011.45 1011.78 1012.04 1012.36 1012.65 1012.83 1013.14 1013.56 1013.90 1013.97 1014.10 1014.21 1014.35 1014.42 1014.55 1014.72 1014.94 1015.02 1014.86 1015.25 1015.55 1015.57 1015.92 1016.24
1006.49 1006.70 1006.99 1007.32 1007.48 1007.65 1008.06 1008.37 1008.61 1008.75 1009.01 1009.27 1009.37 1009.41 1009.69 1009.95 1010.21 1010.57 1011.02 1011.39 1011.63 1011.89 1012.20 1012.53 1012.81 1013.04 1013.39 1013.76 1013.99 1014.14 1014.22 1014.36 1014.49 1014.68 1014.84 1014.87 1015.07 1015.15 1015.28 1015.50 1015.75 1015.76 1016.10
1006.59 1006.61 1006.89 1007.20 1007.65 1007.95 1008.06 1008.32 1008.66 1008.87 1009.00 1009.17 1009.43 1009.46 1009.58 1009.83 1010.15 1010.45 1010.85 1011.29 1011.58 1011.78 1012.02 1012.33 1012.77 1012.99 1013.26 1013.66 1014.03 1014.21 1014.22 1014.41 1014.63 1014.80 1014.90 1014.96 1014.93 1014.95 1015.21 1015.59 1015.78 1016.13 1016.22
1006.64 1006.87 1007.01 1007.23 1007.47 1007.80 1008.10 1008.34 1008.57 1008.84 1009.08 1009.19 1009.35 1009.48 1009.56 1009.73 1010.01 1010.39 1010.75 1011.19 1011.57 1011.78 1011.98 1012.25 1012.60 1012.91 1013.19 1013.49 1013.85 1014.18 1014.25 1014.34 1014.65 1014.85 1014.93 1015.08 1015.02 1014.94 1015.01 1015.30 1015.83 1016.29 1016.49
1006.81 1006.93 1007.05 1007.26 1007.50 1007.77 1008.14 1008.33 1008.48 1008.71 1008.94 1009.12 1009.27 1009.48 1009.64 1009.81 1010.10 1010.41 1010.73 1011.08 1011.54 1011.85 1012.02 1012.31 1012.59 1012.82 1013.10 1013.37 1013.73 1014.06 1014.28 1014.25 1014.48 1014.80 1014.93 1015.00 1015.21 1015.21 1015.17 1015.29 1015.71 1016.23 1016.38
1007.03 1007.17 1007.27 1007.24 1007.52 1007.68 1007.92 1008.21 1008.46 1008.68 1008.80 1008.94 1009.12 1009.35 1009.54 1009.80 1010.01 1010.26 1010.56 1010.97 1011.34 1011.72 1011.96 1012.19 1012.49 1012.74 1012.97 1013.20 1013.51 1013.87 1014.15 1014.19 1014.24 1014.47 1014.69 1014.89 1014.99 1015.19 1015.32 1015.43 1015.58 1015.83 1016.34
1007.26 1007.33 1007.40 1007.65 1007.67 1007.81 1008.04 1008.16 1008.45 1008.63 1008.81 1008.97 1009.16 1009.40 1009.63 1009.79 1009.90 1010.10 1010.38 1010.72 1011.03 1011.44 1011.77 1012.08 1012.47 1012.74 1012.97 1013.18 1013.36 1013.63 1013.97 1014.23 1014.17 1014.15 1014.34 1014.50 1014.76 1014.95 1015.25 1015.52 1015.51 1015.65 1015.96
1007.12 1006.96 1006.97 1007.36 1007.85 1008.08 1008.09 1008.33 1008.54 1008.84 1009.06 1009.24 1009.37 1009.49 1009.59 1009.71 1009.87 1010.05 1010.30 1010.56 1010.89 1011.27 1011.68 1012.11 1012.44 1012.68 1012.96 1013.20 1013.24 1013.49 1013.85 1014.08 1014.25 1014.16 1014.01 1014.07 1014.16 1014.55 1014.84 1015.13 1015.15 1015.41 1015.56
1006.53 1006.59 1006.58 1006.83 1007.32 1007.89 1008.30 1008.50 1008.60 1008.62 1008.91 1009.19 1009.36 1009.47 1009.60 1009.62 1009.82 1009.91 1010.08 1010.33 1010.69 1011.11 1011.58 1012.04 1012.33 1012.58 1012.77 1012.97 1013.19 1013.31 1013.61 1013.93 1013.92 1013.98 1013.88 1013.74 1013.91 1014.17 1014.32 1014.61 1015.06 1015.22 1015.41
1006.65 1006.54 1006.83 1007.20 1007.38 1007.57 1007.76 1008.52 1008.80 1008.80 1008.62 1009.20 1009.26 1009.55 1009.68 1009.87 1009.86 1009.77 1009.73 1009.91 1010.36 1010.68 1010.98 1011.46 1011.96 1012.24 1012.44 1012.62 1012.88 1013.15 1013.28 1013.51 1013.59 1013.66 1013.80 1013.69 1013.47 1013.66 1013.94 1014.18 1014.50 1014.78 1014.96
1007.00 1006.98 1007.20 1007.37 1007.66 1007.89 1008.07 1008.44 1008.73 1008.96 1008.99 1008.97 1009.17 1009.41 1009.58 1009.67 1009.61 1009.67 1009.60 1009.61 1009.75 1010.18 1010.58 1011.14 1011.49 1011.90 1012.18 1012.33 1012.53 1012.81 1013.08 1013.19 1013.16 1013.17 1013.25 1013.33 1013.48 1013.38 1013.53 1013.76 1013.92 1014.30 1014.66
1007.41 1007.38 1007.61 1007.64 1007.54 1007.97 1008.44 1008.57 1008.95 1009.02 1008.94 1008.97 1009.30 1009.50 1009.73 1009.65 1009.59 1009.56 1009.53 1009.61 1009.73 1009.83 1010.16 1010.40 1010.78 1011.11 1011.57 1011.99 1012.22 1012.28 1012.58 1012.63 1012.66 1012.59 1012.70 1012.78 1012.91 1013.13 1013.26 1013.41 1013.54 1013.96 1014.23
1007.90 1007.94 1008.03 1008.13 1008.08 1008.26 1008.78 1008.99 1009.09 1009.25 1009.27 1009.56 1009.69 1009.65 1009.66 1009.73 1009.37 1009.39 1009.43 1009.26 1009.14 1009.02 1009.27 1009.81 1010.41 1010.80 1011.16 1011.50 1011.66 1011.82 1011.86 1011.81 1012.01 1012.28 1012.29 1012.41 1012.49 1012.73 1012.98 1013.15 1013.34 1013.63 1013.87
1008.22 1008.44 1008.55 1008.46 1008.53 1008.76 1009.10 1009.46 1009.70 1009.64 1009.64 1009.94 1009.98 1009.96 1009.83 1009.98 1009.69 1009.17 1009.08 1008.80 1008.36 1008.39 1008.89 1009.52 1009.92 1009.97 1010.26 1010.77 1011.18 1011.36 1011.56 1011.57 1011.50 1011.50 1011.66 1011.75 1011.87 1011.93 1012.17 1012.44 1012.70 1013.08 1013.58
1009.28 1008.93 1008.97 1008.99 1009.12 1009.28 1009.44 1009.48 1009.63 1009.90 1010.11 1010.29 1010.21 1010.30 1010.12 1010.06 1010.09 1009.86 1009.56 1008.54 1008.11 1008.30 1008.54 1008.54 1009.71 1009.66 1009.13 1009.85 1010.26 1010.94 1011.20 1011.21 1011.17 1011.09 1011.26 1011.33 1011.53 1011.68 1011.85 1011.96 1012.12 1012.45 1012.83
1010.80 1010.14 1009.65 1009.68 1009.82 1009.74 1009.67 1009.74 1009.81 1009.98 1010.29 1010.32 1010.51 1010.47 1010.39 1010.25 1010.12 1010.16 1010.03 1009.46 1008.60 1008.27 1008.12 1008.34 1009.26 1009.01 1008.04 1009.69 1009.74 1009.72 1010.46 1010.89 1010.82 1010.91 1011.28 1011.32 1011.32 1011.46 1011.58 1011.84 1011.98 1012.16 1012.38
1012.41 1011.87 1010.95 1010.58 1010.70 1010.38 1010.14 1010.29 1010.46 1010.82 1010.67 1010.49 1010.52 1010.70 1010.49 1010.42 1010.10 1010.05 1009.70 1009.53 1009.12 1008.31 1007.97 1008.02 1007.93 1007.84 1008.01 1007.93 1009.47 1009.77 1010.37 1010.61 1010.70 1010.88 1010.72 1011.03 1011.59 1011.54 1011.49 1011.64 1011.73 1011.78 1012.15
1013.36 1013.07 1012.51 1011.71 1011.70 1011.60 1011.30 1011.14 1010.91 1011.21 1011.25 1010.95 1010.84 1010.78 1010.64 1010.79 1010.54 1010.20 1009.84 1009.62 1009.31 1008.87 1008.14 1007.46 1007.45 1007.58 1007.80 1007.97 1008.19 1009.19 1009.70 1010.30 1010.31 1010.49 1010.98 1011.02 1010.87 1011.04 1011.85 1011.51 1011.60 1011.39 1011.58
1014.23 1013.73 1013.30 1012.55 1012.11 1011.82 1011.42 1011.44 1011.56 1011.15 1011.26 1011.08 1010.95 1010.87 1010.83 1010.74 1010.61 1010.36 1009.93 1009.62 1009.32 1009.00 1008.52 1008.05 1007.51 1007.40 1007.40 1007.48 1007.77 1008.67 1009.41 1009.55 1009.55 1009.71 1010.50 1010.57 1011.31 1010.68 1011.15 1011.15 1011.48 1011.24 1011.23
1015.69 1014.85 1014.27 1013.52 1012.68 1011.83 1012.07 1012.00 1012.52 1012.46 1012.69 1012.53 1012.07 1011.34 1010.70 1010.46 1010.29 1010.03 1009.92 1009.65 1009.33 1008.83 1008.45 1007.97 1007.58 1007.13 1007.05 1007.29 1007.79 1007.79 1007.71 1008.22 1009.33 1009.86 1010.12 1009.69 1010.55 1010.08 1010.27 1010.57 1010.91 1010.87 1010.75
1015.28 1016.64 1015.06 1014.42 1013.32 1013.29 1013.25 1012.74 1012.91 1012.88 1012.94 1012.60 1012.27 1011.85 1010.98 1010.54 1010.27 1009.80 1009.65 1009.27 1008.95 1008.60 1008.20 1007.78 1007.36 1006.70 1006.22 1006.39 1006.81 1007.64 1007.97 1007.95 1008.08 1008.42 1009.18 1009.07 1009.38 1009.32 1008.98 1008.72 1010.04 1010.26 1010.03
1016.47 1016.86 1015.67 1015.47 1014.49 1014.31 1013.69 1013.55 1013.56 1013.01 1012.94 1012.86 1012.43 1012.11 1011.47 1010.86 1010.39 1009.86 1009.53 1009.27 1008.80 1008.10 1007.70 1007.18 1006.87 1006.26 1005.54 1005.42 1005.60 1005.89 1006.21 1007.01 1007.21 1007.48 1007.76 1007.69 1007.54 1007.64 1008.09 1008.38 1008.46 1009.04 1009.44
Thickness
5798 5800 5795 5793 5790 5788 5786 5788 5789 5788 5787 5784 5782 5780 5778 5775 5771 5767 5761 5756 5751 5748 5744 5741 5738 5735 5734 5730 5727 5726 5723 5722 5721 5720 5718 5715 5712 5710 5706 5704 5701 5698 5695
5801 5796 5792 5789 5787 5785 5783 5782 5783 5781 5778 5777 5776 5775 5773 5772 5768 5763 5757 5752 5748 5744 5741 5737 5735 5732 5730 5726 5724 5723 5720 5718 5717 5717 5715 5713 5711 5706 5701 5699 5695 5692 5691
5797 5794 5788 5786 5785 5781 5779 5776 5775 5776 5775 5773 5772 5768 5767 5765 5762 5759 5754 5749 5745 5740 5737 5734 5731 5729 5725 5723 5722 5720 5718 5716 5714 5712 5712 5710 5706 5703 5699 5696 5691 5688 5687
5793 5789 5786 5784 5783 5780 5775 5772 5770 5770 5770 5768 5766 5764 5762 5759 5757 5753 5749 5744 5740 5736 5733 5731 5728 5725 5721 5719 5718 5718 5716 5714 5712 5710 5708 5705 5703 5700 5695 5691 5688 5685 5684
5787 5784 5782 5781 5780 5778 5774 5771 5768 5765 5762 5762 5762 5762 5759 5757 5754 5750 5745 5741 5737 5734 5730 5727 5725 5722 5719 5716 5716 5714 5713 5712 5709 5707 5705 5702 5701 5700 5695 5690 5688 5686 5681
5783 5780 5779 5775 5774 5772 5768 5766 5764 5763 5760 5757 5757 5758 5757 5755 5752 5748 5743 5738 5735 5732 5728 5725 5722 5720 5718 5715 5712 5711 5710 5709 5706 5703 5702 5701 5699 5697 5693 5690 5686 5686 5683
5777 5776 5774 5772 5768 5765 5764 5762 5760 5758 5757 5755 5753 5752 5752 5751 5749 5745 5741 5736 5733 5730 5727 5724 5720 5718 5715 5712 5708 5706 5706 5705 5703 5701 5699 5699 5698 5697 5693 5687 5684 5680 5679
5772 5769 5768 5767 5764 5761 5759 5758 5756 5754 5752 5751 5749 5748 5747 5747 5745 5741 5738 5733 5729 5726 5724 5721 5718 5715 5712 5709 5705 5702 5702 5703 5699 5697 5696 5695 5695 5694 5692 5689 5683 5677 5675
5767 5764 5764 5762 5759 5756 5753 5752 5752 5750 5749 5747 5746 5744 5743 5742 5739 5736 5733 5729 5724 5721 5719 5717 5714 5712 5709 5706 5703 5700 5698 5699 5698 5695 5693 5692 5689 5689 5688 5686 5682 5676 5673
5759 5756 5755 5757 5755 5753 5751 5748 5746 5746 5745 5744 5742 5741 5739 5738 5736 5733 5730 5725 5721 5718 5716 5713 5711 5708 5706 5704 5701 5698 5696 5695 5696 5695 5692 5690 5688 5685 5683 5682 5680 5677 5671
5751 5749 5747 5746 5748 5747 5745 5744 5742 5740 5739 5738 5736 5735 5733 5733 5732 5730 5727 5723 5720 5716 5713 5710 5706 5703 5701 5699 5698 5696 5693 5691 5693 5693 5691 5689 5686 5684 5681 5677 5678 5676 5673
5739 5744 5747 5743 5739 5737 5737 5735 5734 5731 5730 5728 5728 5727 5727 5726 5726 5725 5723 5720 5716 5713 5709 5704 5700 5698 5696 5695 5695 5693 5690 5688 5687 5689 5690 5689 5687 5684 5682 5678 5677 5674 5672
5738 5739 5742 5741 5738 5732 5729 5726 5726 5726 5724 5721 5720 5719 5718 5720 5719 5720 5719 5717 5713 5708 5704 5699 5697 5694 5692 5690 5690 5689 5687 5684 5685 5685 5685 5687 5685 5683 5682 5679 5675 5672 5671
5730 5731 5731 5730 5732 5730 5726 5719 5717 5719 5719 5714 5713 5710 5710 5710 5711 5714 5716 5714 5709 5706 5703 5698 5693 5690 5688 5687 5685 5683 5683 5681 5682 5682 5681 5683 5685 5683 5680 5679 5675 5672 5670
5721 5722 5721 5722 5719 5718 5717 5714 5711 5707 5708 5707 5705 5703 5702 5704 5705 5706 5708 5707 5706 5703 5699 5694 5691 5687 5684 5683 5682 5679 5677 5677 5679 5681 5681 5680 5680 5680 5678 5677 5676 5671 5668
5708 5709 5707 5709 5713 5709 5703 5703 5699 5697 5697 5697 5695 5693 5692 5694 5698 5699 5700 5699 5698 5697 5693 5691 5689 5686 5682 5679 5679 5677 5674 5673 5675 5679 5679 5679 5678 5676 5675 5674 5675 5671 5667
5691 5694 5693 5692 5695 5696 5692 5690 5689 5686 5684 5682 5682 5683 5683 5682 5688 5690 5690 5693 5695 5694 5691 5685 5681 5679 5677 5675 5674 5674 5673 5673 5673 5672 5674 5674 5672 5672 5670 5669 5668 5667 5666
5675 5674 5675 5678 5676 5675 5676 5675 5674 5673 5672 5669 5669 5671 5672 5670 5674 5681 5683 5687 5691 5690 5682 5675 5670 5674 5675 5673 5669 5669 5668 5669 5670 5670 5671 5672 5672 5672 5671 5668 5667 5665 5661
5654 5655 5656 5657 5658 5656 5657 5661 5661 5660 5660 5657 5657 5657 5660 5660 5660 5663 5668 5678 5683 5680 5676 5673 5663 5667 5674 5671 5667 5660 5660 5661 5664 5664 5666 5667 5668 5667 5666 5666 5665 5663 5661
5625 5630 5633 5634 5634 5638 5640 5642 5645 5645 5645 5646 5644 5645 5646 5649 5651 5651 5654 5662 5671 5673 5671 5660 5661 5666 5671 5651 5657 5662 5653 5652 5656 5658 5656 5656 5661 5662 5661 5658 5659 5659 5657
5589 5594 5603 5607 5609 5616 5622 5623 5623 5622 5628 5632 5633 5632 5636 5636 5640 5641 5645 5648 5654 5664 5668 5667 5668 5670 5665 5659 5654 5652 5644 5644 5645 5644 5645 5645 5644 5649 5652 5652 5652 5656 5652
5562 5568 5574 5582 5583 5588 5596 5601 5604 5603 5607 5615 5618 5620 5622 5622 5626 5631 5634 5636 5641 5647 5655 5664 5664 5664 5663 5663 5660 5651 5646 5642 5642 5642 5634 5627 5633 5638 5636 5643 5643 5650 5650
5540 5549 5555 5563 5570 5574 5581 5584 5584 5591 5592 5597 5603 5606 5609 5611 5613 5617 5623 5627 5631 5635 5640 5646 5652 5653 5654 5655 5654 5642 5633 5637 5640 5640 5631 5623 5616 5626 5630 5635 5634 5640 5645
5517 5526 5535 5546 5556 5564 5564 5565 5565 5566 5567 5571 5578 5589 5596 5600 5604 5608 5612 5616 5621 5626 5630 5636 5639 5644 5645 5642 5641 5642 5642 5639 5629 5623 5629 5630 5615 5624 5627 5633 5632 5632 5637
5510 5501 5517 5527 5541 5543 5546 5551 5552 5554 5554 5558 5565 5570 5580 5586 5591 5599 5603 5608 5613 5618 5622 5626 5630 5636 5641 5638 5634 5628 5627 5627 5628 5624 5620 5625 5621 5628 5635 5640 5630 5629 5634
5491 5492 5507 5512 5523 5528 5535 5535 5536 5542 5542 5543 5550 5557 5565 5572 5577 5584 5592 5597 5603 5610 5614 5620 5623 5629 5636 5636 5633 5629 5626 5622 5622 5622 5620 5626 5628 5630 5634 5629 5632 5630 5629